GW3385 Weather Reports


time (UTC)temp
F
wind
direction
speed
knots
gust
knots
rain 1hr
in
rain 24hr
in
rain mn
in
humidity
%
barometer
mb
20260906082055 72 0 0.0 3.5 0.00 0.00 0.00 52 1011.6
20260906081559 72 360 0.9 3.5 0.00 0.00 0.00 52 1011.6
20260906081056 72 0 0.0 1.7 0.00 0.00 0.00 54 1011.6
20260906080555 72 0 0.0 1.7 0.00 0.00 0.00 54 1011.6
20260906080111 72 0 0.0 1.7 0.00 0.00 0.00 54 1011.6
20260906075555 72 0 0.0 1.7 0.00 0.00 0.00 54 1011.6
20260906075055 72 0 0.0 1.7 0.00 0.00 0.00 55 1011.6
20260906074559 72 0 0.0 1.7 0.00 0.00 0.00 55 1011.6
20260906074054 72 338 0.0 1.7 0.00 0.00 0.00 55 1011.6
20260906073556 72 0 0.0 1.7 0.00 0.00 0.00 55 1011.7
20260906073103 72 352 0.0 1.7 0.00 0.00 0.00 54 1011.6
20260906072556 72 0 0.0 1.7 0.00 0.00 0.00 54 1011.6
20260906072056 71 0 0.0 1.7 0.00 0.00 0.00 54 1011.6
20260906071613 71 0 0.0 1.7 0.00 0.00 0.00 54 1011.6
20260906071055 71 0 0.0 2.6 0.00 0.00 0.00 55 1011.5
20260906070554 71 352 0.9 2.6 0.00 0.00 0.00 55 1011.5
20260906070106 71 352 0.0 2.6 0.00 0.00 0.00 55 1011.5
20260906065557 71 345 0.9 3.5 0.00 0.00 0.00 55 1011.5
20260906065055 71 0 0.9 3.5 0.00 0.00 0.00 55 1011.6
20260906064602 71 342 1.7 3.5 0.00 0.00 0.00 55 1011.4
20260906064057 71 338 0.0 1.7 0.00 0.00 0.00 54 1011.6
20260906063555 71 0 0.0 0.9 0.00 0.00 0.00 54 1011.6
20260906063057 71 0 0.0 0.9 0.00 0.00 0.00 54 1011.6
20260906062559 71 0 0.0 0.9 0.00 0.00 0.00 53 1011.7
20260906062055 71 0 0.0 1.7 0.00 0.00 0.00 52 1011.7
20260906061606 71 0 0.0 1.7 0.00 0.00 0.00 52 1011.8
20260906061055 71 338 0.0 1.7 0.00 0.00 0.00 53 1011.8
20260906060555 71 0 0.0 0.0 0.00 0.00 0.00 52 1011.8
20260906060155 71 0 0.0 0.0 0.00 0.00 0.00 52 1011.8
20260906055555 71 0 0.0 0.0 0.00 0.00 0.00 49 1011.8
20260906055056 71 0 0.0 0.0 0.00 0.00 0.00 49 1011.8
20260906054609 71 0 0.0 0.9 0.00 0.00 0.00 50 1011.8
20260906054056 72 0 0.0 0.9 0.00 0.00 0.00 51 1011.9
20260906053555 72 0 0.0 0.9 0.00 0.00 0.00 51 1011.8
20260906053055 72 0 0.0 0.9 0.00 0.00 0.00 50 1011.9
20260906052556 72 0 0.0 0.9 0.00 0.00 0.00 49 1011.9
20260906052057 72 0 0.0 0.9 0.00 0.00 0.00 49 1012.0
20260906051605 72 0 0.0 0.9 0.00 0.00 0.00 50 1012.0
20260906051055 72 0 0.0 0.9 0.00 0.00 0.00 50 1012.0
20260906050556 72 0 0.0 0.9 0.00 0.00 0.00 49 1012.0
20260906050114 72 0 0.0 2.6 0.00 0.00 0.00 49 1012.0
20260906045555 72 0 0.0 2.6 0.00 0.00 0.00 49 1011.9
20260906045055 72 0 0.9 2.6 0.00 0.00 0.00 49 1011.9
20260906044558 72 340 0.9 2.6 0.00 0.00 0.00 49 1011.9
20260906044057 73 323 0.0 2.6 0.00 0.00 0.00 49 1011.9
20260906043555 73 0 0.0 2.6 0.00 0.00 0.00 48 1012.0
20260906043110 73 0 0.9 2.6 0.00 0.00 0.00 47 1012.0
20260906042556 73 0 0.0 0.9 0.00 0.00 0.00 48 1011.9
20260906042055 73 0 0.0 0.9 0.00 0.00 0.00 47 1012.0
20260906041605 74 26 0.0 0.9 0.00 0.00 0.00 46 1012.0
20260906041054 74 0 0.0 1.7 0.00 0.00 0.00 47 1012.0
20260906040555 74 0 0.0 1.7 0.00 0.00 0.00 48 1011.9
20260906035555 75 0 0.0 1.7 0.00 0.00 0.00 48 1011.8
20260906035056 75 0 0.0 1.7 0.00 0.00 0.00 45 1011.8
20260906034601 75 55 0.0 1.7 0.00 0.00 0.00 45 1011.8
20260906034055 75 0 0.0 0.0 0.00 0.00 0.00 45 1011.8
20260906033555 76 0 0.0 0.0 0.00 0.00 0.00 46 1011.8
20260906033057 76 0 0.0 0.0 0.00 0.00 0.00 45 1011.6
20260906032555 76 0 0.0 0.0 0.00 0.00 0.00 45 1011.6
20260906032056 76 0 0.0 0.0 0.00 0.00 0.00 44 1011.4
20260906031630 76 0 0.0 0.0 0.00 0.00 0.00 42 1011.4
20260906031056 76 0 0.0 1.7 0.00 0.00 0.00 42 1011.4
20260906030556 76 0 0.0 1.7 0.00 0.00 0.00 42 1011.3
20260906030059 76 0 0.0 1.7 0.00 0.00 0.00 41 1011.4
20260906025555 76 0 0.0 4.3 0.00 0.00 0.00 41 1011.4
20260906025056 76 180 0.9 4.3 0.00 0.00 0.00 40 1011.4
20260906024607 76 192 1.7 4.3 0.00 0.00 0.00 41 1011.4
20260906024055 76 186 0.9 5.2 0.00 0.00 0.00 42 1011.5
20260906023556 76 220 0.9 5.2 0.00 0.00 0.00 41 1011.5
20260906023113 77 196 0.9 5.2 0.00 0.00 0.00 42 1011.5
20260906022557 77 190 1.7 5.2 0.00 0.00 0.00 41 1011.4
20260906022056 77 182 1.7 5.2 0.00 0.00 0.00 40 1011.5
20260906021557 77 182 0.9 7.0 0.00 0.00 0.00 39 1011.5
20260906021055 77 302 3.5 7.8 0.00 0.00 0.00 39 1011.5
20260906020555 77 300 4.3 7.8 0.00 0.00 0.00 39 1011.4
20260906020106 77 276 4.3 7.0 0.00 0.00 0.00 41 1011.4
20260906015555 78 267 3.5 7.0 0.00 0.00 0.00 42 1011.4
20260906015055 78 311 1.7 7.0 0.00 0.00 0.00 45 1011.3
20260906014607 78 176 3.5 8.7 0.00 0.00 0.00 44 1011.3
20260906014054 78 247 1.7 8.7 0.00 0.00 0.00 49 1011.3
20260906013555 78 258 2.6 7.8 0.00 0.00 0.00 46 1011.4
20260906013100 78 307 3.5 7.8 0.00 0.00 0.00 49 1011.3
20260906012555 78 271 3.5 7.8 0.00 0.00 0.00 50 1011.4
20260906012056 78 261 2.6 7.8 0.00 0.00 0.00 50 1011.5
20260906011605 78 194 1.7 6.1 0.00 0.00 0.00 51 1011.3
20260906011055 78 254 1.7 9.6 0.00 0.00 0.00 51 1011.3
20260906010555 79 231 3.5 9.6 0.00 0.00 0.00 52 1011.2
20260906005556 80 232 3.5 7.0 0.00 0.00 0.00 48 1011.3
20260906005056 80 167 2.6 7.0 0.00 0.00 0.00 47 1011.2
20260906004608 80 248 1.7 7.0 0.00 0.00 0.00 46 1011.2
20260906004055 80 250 3.5 7.8 0.00 0.00 0.00 48 1011.1
20260906003556 80 189 3.5 8.7 0.00 0.00 0.00 49 1011.2
20260906003101 80 202 2.6 10.4 0.00 0.00 0.00 50 1011.0
20260906002559 80 181 6.1 10.4 0.00 0.00 0.00 49 1011.0
20260906002056 80 199 3.5 8.7 0.00 0.00 0.00 50 1011.0
20260906001559 80 244 4.3 9.6 0.00 0.00 0.00 49 1011.0
20260906001056 81 189 5.2 9.6 0.00 0.00 0.00 47 1011.1
20260906000555 81 223 5.2 9.6 0.00 0.00 0.00 47 1011.1
20260906000110 82 151 3.5 9.6 0.00 0.00 0.00 49 1011.1
20260905235555 82 223 2.6 7.8 0.00 0.00 0.00 49 1011.1
20260905235055 82 183 3.5 7.8 0.00 0.00 0.00 47 1011.2
20260905234602 82 162 2.6 8.7 0.00 0.00 0.00 51 1011.0
20260905234059 82 176 3.5 9.6 0.00 0.00 0.00 48 1011.1
20260905233555 82 270 5.2 9.6 0.00 0.00 0.00 46 1010.9
20260905233105 82 300 5.2 9.6 0.00 0.00 0.00 48 1010.9
20260905232556 82 173 2.6 7.8 0.00 0.00 0.00 46 1011.2
20260905232056 82 279 2.6 8.7 0.00 0.00 0.00 50 1011.1
20260905231619 82 263 4.3 8.7 0.00 0.00 0.00 48 1011.2
20260905231055 82 247 4.3 9.6 0.00 0.00 0.00 48 1011.2
20260905230556 82 217 4.3 9.6 0.00 0.00 0.00 48 1011.2
20260905230112 82 271 6.1 9.6 0.00 0.00 0.00 48 1011.2
20260905225555 83 302 4.3 9.6 0.00 0.00 0.00 50 1011.3
20260905225055 83 130 4.3 10.4 0.00 0.00 0.00 48 1011.2
20260905224559 83 168 3.5 10.4 0.00 0.00 0.00 47 1011.3
20260905224055 83 250 3.5 9.6 0.00 0.00 0.00 47 1011.3
20260905223555 83 199 4.3 9.6 0.00 0.00 0.00 48 1011.5
20260905223106 83 148 2.6 7.0 0.00 0.00 0.00 48 1011.5
20260905222557 83 153 3.5 7.8 0.00 0.00 0.00 48 1011.5
20260905222055 83 0 3.5 10.4 0.00 0.00 0.00 46 1011.6
20260905221628 84 169 3.5 10.4 0.00 0.00 0.00 45 1011.6
20260905221055 84 191 4.3 8.7 0.00 0.00 0.00 43 1011.8
20260905220555 84 216 4.3 8.7 0.00 0.00 0.00 41 1011.7
20260905220103 84 201 4.3 8.7 0.00 0.00 0.00 42 1011.9
20260905215556 84 235 3.5 8.7 0.00 0.00 0.00 42 1011.8
20260905215056 84 262 3.5 9.6 0.00 0.00 0.00 41 1011.8
20260905214603 84 181 3.5 9.6 0.00 0.00 0.00 41 1011.8
20260905214057 84 184 2.6 7.8 0.00 0.00 0.00 42 1012.0
20260905213556 83 185 3.5 9.6 0.00 0.00 0.00 43 1012.0
20260905213130 83 160 4.3 9.6 0.00 0.00 0.00 43 1012.0
20260905212557 83 153 1.7 7.8 0.00 0.00 0.00 45 1012.1
20260905212056 83 234 4.3 7.8 0.00 0.00 0.00 48 1012.1
20260905211605 83 186 4.3 7.8 0.00 0.00 0.00 46 1012.2
20260905211055 83 314 1.7 7.8 0.00 0.00 0.00 49 1012.3
20260905210555 82 288 4.3 7.8 0.00 0.00 0.00 49 1012.3
20260905210111 82 286 2.6 7.8 0.00 0.00 0.00 51 1012.4
20260905205556 82 192 3.5 7.0 0.00 0.00 0.00 52 1012.3
20260905205056 82 163 3.5 10.4 0.00 0.00 0.00 53 1012.4
20260905204612 81 160 1.7 10.4 0.00 0.00 0.00 56 1012.5
20260905204055 81 115 4.3 10.4 0.00 0.00 0.00 56 1012.7
20260905203556 81 214 5.2 8.7 0.00 0.00 0.00 55 1012.7
20260905203104 81 159 4.3 7.8 0.00 0.00 0.00 56 1012.7
20260905202556 81 157 3.5 8.7 0.00 0.00 0.00 55 1012.7
20260905202055 81 196 4.3 8.7 0.00 0.00 0.00 55 1012.7
20260905201607 82 245 3.5 7.8 0.00 0.00 0.00 57 1012.7
20260905201059 81 153 3.5 7.8 0.00 0.00 0.00 56 1012.8
20260905200552 81 223 2.6 7.0 0.00 0.00 0.00 58 1012.8
20260905200127 81 232 3.5 8.7 0.00 0.00 0.00 56 1012.9
20260905195559 81 214 5.2 8.7 0.00 0.00 0.00 57 1013.0
20260905195056 82 208 3.5 9.6 0.00 0.00 0.00 57 1013.1
20260905194607 82 184 2.6 9.6 0.00 0.00 0.00 55 1013.1
20260905194059 81 139 2.6 6.1 0.00 0.00 0.00 57 1013.0
20260905193555 81 266 1.7 7.8 0.00 0.00 0.00 55 1013.1
20260905193104 81 291 2.6 7.8 0.00 0.00 0.00 56 1013.1
20260905192557 81 218 2.6 6.1 0.00 0.00 0.00 57 1013.1
20260905192055 81 202 1.7 6.1 0.00 0.00 0.00 56 1013.2
20260905191602 80 163 1.7 7.8 0.00 0.00 0.00 57 1013.2
20260905191055 80 238 2.6 7.8 0.00 0.00 0.00 56 1013.3
20260905190556 80 150 3.5 8.7 0.00 0.00 0.00 55 1013.4
20260905185555 80 205 1.7 5.2 0.00 0.00 0.00 53 1013.5
20260905185059 80 243 2.6 6.1 0.00 0.00 0.00 55 1013.6
20260905184602 80 202 2.6 6.1 0.00 0.00 0.00 57 1013.5
20260905184059 80 248 2.6 5.2 0.00 0.00 0.00 56 1013.5
20260905183556 81 247 1.7 5.2 0.00 0.00 0.00 55 1013.6
20260905183107 81 275 0.9 3.5 0.00 0.00 0.00 50 1013.6
20260905182631 80 0 0.9 3.5 0.00 0.00 0.00 51 1013.7
20260905182055 80 99 0.0 6.1 0.00 0.00 0.00 52 1013.7
20260905181603 80 55 1.7 6.1 0.00 0.00 0.00 51 1013.8
20260905181053 79 115 0.9 6.1 0.00 0.00 0.00 51 1013.8
20260905180555 79 219 1.7 6.1 0.00 0.00 0.00 51 1013.8
20260905180114 79 78 2.6 5.2 0.00 0.00 0.00 52 1013.8
20260905175556 79 315 0.0 2.6 0.00 0.00 0.00 55 1013.8
20260905175059 78 71 0.0 4.3 0.00 0.00 0.00 53 1013.7
20260905174605 77 0 0.0 4.3 0.00 0.00 0.00 57 1013.7
20260905174055 77 194 1.7 6.1 0.00 0.00 0.00 58 1013.7
20260905173556 77 0 2.6 6.1 0.00 0.00 0.00 58 1013.6
20260905173126 78 229 1.7 3.5 0.00 0.00 0.00 59 1013.7
20260905172555 78 179 0.0 5.2 0.00 0.00 0.00 61 1013.6
20260905172055 77 0 0.9 5.2 0.00 0.00 0.00 61 1013.7
20260905171603 77 0 1.7 5.2 0.00 0.00 0.00 61 1013.7
20260905171056 76 119 1.7 5.2 0.00 0.00 0.00 61 1013.7
20260905170556 76 0 0.9 6.1 0.00 0.00 0.00 64 1013.6
20260905170105 76 200 1.7 6.1 0.00 0.00 0.00 63 1013.7
20260905165555 76 0 0.9 4.3 0.00 0.00 0.00 64 1013.6
20260905165059 76 0 1.7 5.2 0.00 0.00 0.00 63 1013.5
20260905164615 76 71 1.7 5.2 0.00 0.00 0.00 61 1013.5
20260905164057 76 71 0.0 3.5 0.00 0.00 0.00 65 1013.4
20260905163556 76 120 0.9 3.5 0.00 0.00 0.00 65 1013.4
20260905163101 76 0 0.9 3.5 0.00 0.00 0.00 65 1013.3
20260905162556 76 0 0.0 2.6 0.00 0.00 0.00 68 1013.3
20260905162056 75 0 0.0 2.6 0.00 0.00 0.00 68 1013.2
20260905161603 75 0 0.0 2.6 0.00 0.00 0.00 70 1013.2
20260905161055 74 71 0.0 2.6 0.00 0.00 0.00 71 1013.1
20260905160555 74 0 0.0 2.6 0.00 0.00 0.00 71 1013.1
20260905160101 74 99 0.0 2.6 0.00 0.00 0.00 72 1013.1
20260905155555 74 85 0.0 1.7 0.00 0.00 0.00 74 1013.1
20260905155057 73 0 0.0 1.7 0.00 0.00 0.00 74 1013.1
20260905154603 73 0 0.0 1.7 0.00 0.00 0.00 75 1013.2
20260905154056 72 0 0.0 0.9 0.00 0.00 0.00 76 1013.1
20260905153559 72 49 0.0 1.7 0.00 0.00 0.00 76 1013.0
20260905153102 71 0 0.0 1.7 0.00 0.00 0.00 80 1013.0
20260905152555 70 0 0.0 0.9 0.00 0.00 0.00 82 1012.9
20260905152055 69 0 0.0 0.9 0.00 0.00 0.00 84 1012.9
20260905151601 69 0 0.0 1.7 0.00 0.00 0.00 85 1013.0
20260905151055 68 0 0.0 1.7 0.00 0.00 0.00 86 1012.9
20260905150559 68 49 0.0 1.7 0.00 0.00 0.00 87 1013.0
20260905150109 67 0 0.0 1.7 0.00 0.00 0.00 89 1012.9
20260905145555 66 0 0.0 1.7 0.00 0.00 0.00 90 1012.9
20260905145055 66 29 0.0 0.0 0.00 0.00 0.00 90 1012.9
20260905144602 65 0 0.0 0.0 0.00 0.00 0.00 91 1012.9
20260905144055 65 0 0.0 2.6 0.00 0.00 0.00 92 1012.9
20260905143555 64 0 0.9 2.6 0.00 0.00 0.00 92 1012.8
20260905143105 64 350 0.0 0.0 0.00 0.00 0.00 92 1012.7
20260905142555 64 0 0.0 0.0 0.00 0.00 0.00 92 1012.6
20260905142056 64 0 0.0 0.0 0.00 0.00 0.00 93 1012.7
20260905141600 64 0 0.0 0.0 0.00 0.00 0.00 93 1012.8
20260905141055 63 0 0.0 0.9 0.00 0.00 0.00 93 1012.7
20260905140556 63 0 0.0 2.6 0.00 0.00 0.00 93 1012.6
20260905140108 63 341 0.9 2.6 0.00 0.00 0.00 92 1012.6
20260905135556 63 0 0.0 2.6 0.00 0.00 0.00 92 1012.5
20260905135056 63 0 0.0 0.9 0.00 0.00 0.00 92 1012.6
20260905134606 63 352 0.0 0.9 0.00 0.00 0.00 92 1012.4
20260905134055 63 0 0.0 1.7 0.00 0.00 0.00 92 1012.4
20260905133556 63 0 0.0 1.7 0.00 0.00 0.00 92 1012.3
20260905133102 63 0 0.0 0.0 0.00 0.00 0.00 92 1012.2
20260905132555 63 0 0.0 0.9 0.00 0.00 0.00 92 1012.2
20260905132058 63 0 0.0 1.7 0.00 0.00 0.00 92 1012.1
20260905131600 63 0 0.9 1.7 0.00 0.00 0.00 92 1012.1
20260905131056 63 28 0.0 1.7 0.00 0.00 0.00 92 1012.1
20260905130556 63 0 0.0 0.0 0.00 0.00 0.00 92 1012.0
20260905130059 63 0 0.0 2.6 0.00 0.00 0.00 92 1012.1
20260905125555 63 0 0.0 3.5 0.00 0.00 0.00 92 1012.0
20260905125056 63 0 0.9 3.5 0.00 0.00 0.00 92 1012.1
20260905124608 63 351 0.0 2.6 0.00 0.00 0.00 92 1012.1
20260905124055 63 0 0.0 2.6 0.00 0.00 0.00 92 1012.1
20260905123555 63 0 0.0 2.6 0.00 0.00 0.00 92 1012.1
20260905123106 63 352 0.9 2.6 0.00 0.00 0.00 92 1011.9
20260905122556 63 352 0.0 2.6 0.00 0.00 0.00 92 1012.0
20260905122100 63 0 0.0 0.0 0.00 0.00 0.00 92 1012.1
20260905121601 63 0 0.0 0.9 0.00 0.00 0.00 92 1012.1
20260905121100 63 0 0.0 0.9 0.00 0.00 0.00 92 1012.1
20260905120555 63 0 0.0 0.9 0.00 0.00 0.00 92 1012.1
20260905120107 63 0 0.0 1.7 0.00 0.00 0.00 92 1012.1
20260905115556 63 0 0.0 1.7 0.00 0.00 0.00 92 1012.1
20260905115055 63 19 0.0 2.6 0.00 0.00 0.00 92 1012.0
20260905114611 63 0 0.9 2.6 0.00 0.00 0.00 92 1012.1
20260905114056 63 352 0.9 2.6 0.00 0.00 0.00 92 1012.1
20260905113555 63 342 0.9 2.6 0.00 0.00 0.00 92 1012.0
20260905113100 63 0 0.0 0.0 0.00 0.00 0.00 91 1012.0
20260905112556 63 0 0.0 0.0 0.00 0.00 0.00 92 1012.1
20260905112055 63 0 0.0 0.0 0.00 0.00 0.00 92 1012.1
20260905111652 63 0 0.0 2.6 0.00 0.00 0.00 92 1012.1
20260905111057 63 0 0.0 2.6 0.00 0.00 0.00 91 1012.1
20260905110556 63 0 0.0 0.0 0.00 0.00 0.00 91 1012.1
20260905110104 63 0 0.0 0.0 0.00 0.00 0.00 91 1012.0
20260905105555 63 0 0.0 0.0 0.00 0.00 0.00 91 1012.1
20260905105054 63 0 0.0 0.0 0.00 0.00 0.00 91 1012.2
20260905104600 64 0 0.0 0.0 0.00 0.00 0.00 91 1012.2
20260905104054 64 0 0.0 0.0 0.00 0.00 0.00 91 1012.2
20260905103553 64 0 0.0 1.7 0.00 0.00 0.00 91 1012.3
20260905103104 64 0 0.0 1.7 0.00 0.00 0.00 91 1012.2
20260905102556 64 0 0.0 1.7 0.00 0.00 0.00 91 1012.2
20260905102053 64 0 0.0 0.0 0.00 0.00 0.00 91 1012.3
20260905101559 64 0 0.0 1.7 0.00 0.00 0.00 91 1012.3
20260905101054 64 0 0.0 1.7 0.00 0.00 0.00 91 1012.3
20260905100553 64 23 0.0 0.9 0.00 0.00 0.00 91 1012.3
20260905095554 64 0 0.0 0.9 0.00 0.00 0.00 90 1012.2
20260905095053 64 0 0.0 1.7 0.00 0.00 0.00 90 1012.2
20260905094557 64 0 0.0 1.7 0.00 0.00 0.00 91 1012.3
20260905094054 64 0 0.0 1.7 0.00 0.00 0.00 91 1012.3
20260905093554 64 0 0.0 1.7 0.00 0.00 0.00 90 1012.4
20260905093122 64 23 0.0 1.7 0.00 0.00 0.00 90 1012.3
20260905092552 64 24 0.0 1.7 0.00 0.00 0.00 90 1012.4
20260905092052 64 0 0.0 0.0 0.00 0.00 0.00 90 1012.4
20260905091600 64 0 0.0 0.0 0.00 0.00 0.00 90 1012.4
20260905091056 64 0 0.0 0.0 0.00 0.00 0.00 89 1012.5
20260905090552 64 0 0.0 0.0 0.00 0.00 0.00 89 1012.4
20260905085554 64 0 0.0 0.0 0.00 0.00 0.00 89 1012.5
20260905085053 64 0 0.0 0.0 0.00 0.00 0.00 89 1012.5
20260905084605 64 0 0.0 0.0 0.00 0.00 0.00 89 1012.5
20260905084054 64 0 0.0 0.0 0.00 0.00 0.00 89 1012.6
20260905083553 64 0 0.0 0.9 0.00 0.00 0.00 89 1012.7
20260905083101 64 0 0.0 0.9 0.00 0.00 0.00 89 1012.7
20260905082553 64 0 0.0 0.9 0.00 0.00 0.00 89 1012.6